Location: Unspecified
(0.0000°N, 0.0000°E)
Time: 09:17:13
(UTC+00:00)

deb Delta 104 - Pass Details

Date: 13 March 2026
Orbit: 754 x 1064 km, 103.0° (Epoch: 20 April)

Event Time Altitude Azimuth Distance (km) Brightness Sun altitude
Rises 19:42:37 0° 175° (S) 3,757 ? -23.3°
Reaches altitude 10° 19:45:16 10° 180° (S) 2,768 ? -23.9°
Maximum altitude 19:51:08 46° 252° (WSW) 1,249 ? -25.4°
Drops below altitude 10° 19:56:36 10° 324° (NW) 2,563 ? -26.8°
Sets 19:58:59 0° 330° (NNW) 3,454 ? -27.4°
